Regional Weather Roundup
Issued by NWS

Home | Current Version | Previous Version | Text Only | Print | Product List | Glossary Off
Versions: 1 2 3 4 5 6 7 8 9 10 11 12 13 14 15 16 17 18 19 20 21 22 23 24 25 26 27 28 29 30 31 32 33 34 35 36 37 38 39 40 41 42 43 44 45 46 47 48 49 50

000
ASUS45 KABQ 131801
RWRNM
NEW MEXICO REGIONAL WEATHER ROUNDUP
NATIONAL WEATHER SERVICE ALBUQUERQUE NM
1100 AM MST WED DEC 13 2017

NOTE: "FAIR" MEANS FEW OR NO CLOUDS BELOW 12,000 FEET AGL WITH NO
       SIGNIFICANT WEATHER OR OBSTRUCTIONS TO VISION.

      THIS PRODUCT IS RELEASED AS TWO VERSIONS.  ONE VERSION NEAR
      THE TOP OF THE HOUR CONTAINING PRELIMINARY DATA FROM ALBUQUERQUE
      AND OTHER STATIONS.  A FINAL VERSION WITH ADDITIONAL DATA IS
      ISSUED ABOUT 10 MINUTES AFTER THE HOUR.

NMZ501-503-504-510>518-131900-
NORTHWEST PLATEAU/NORTHCENTRAL MOUNTAINS

CITY           SKY/WX    TMP DP  RH WIND       PRES   REMARKS
FARMINGTON     FAIR      33   4  29 E6        30.22F WCI  28
6HR MIN TEMP:   8; 6HR MAX TEMP:  33;

LOS ALAMOS     FAIR      46   5  18 CALM      30.19F
SANTA FE       FAIR      45   8  22 N7        30.18F
6HR MIN TEMP:  20; 6HR MAX TEMP:  45;

TAOS           FAIR      46   8  21 N7        30.21F
ANGEL FIRE     FAIR      45   6  20 N3        30.21F

$$
NMZ402-403-502-505>509-131900-
WESTCENTRAL MOUNTAINS/SOUTHWEST MOUNTAINS

CITY           SKY/WX    TMP DP  RH WIND       PRES   REMARKS
GALLUP         FAIR      39   1  20 CALM      30.23F
6HR MIN TEMP:   6; 6HR MAX TEMP:  40;

GRANTS         FAIR      38   1  21 NW8       30.23F WCI  33
SILVER CITY    FAIR      54  10  17 CALM      30.18F

$$
NMZ407-409-411-412-131900-
SOUTHERN DESERTS

CITY           SKY/WX    TMP DP  RH WIND       PRES   REMARKS
DEMING         FAIR      52  13  21 SW3       30.18F
6HR MIN TEMP:  23; 6HR MAX TEMP:  52;

LAS CRUCES     FAIR      53  11  18 E3        30.19F
HOLLOMAN AFB   FAIR      49  11  21 CALM      30.19F
ALAMOGORDO     FAIR      48   9  20 S3        30.18F
T OR C         FAIR      48   5  17 E5        30.18F
6HR MIN TEMP:  26; 6HR MAX TEMP:  49;


$$
NMZ519>523-131900-
CENTRAL VALLEYS/CENTRAL HIGHLANDS

CITY           SKY/WX    TMP DP  RH WIND       PRES   REMARKS
ALBUQUERQUE    FAIR      45   4  18 NW7       30.20F
6HR MIN TEMP:  23; 6HR MAX TEMP:  45;

DOUBLE EAGLE   SUNNY     46   7  19 E5        30.21S
MORIARTY ARPT  FAIR      50   7  17 N5        30.19F
6HR MIN TEMP:   9; 6HR MAX TEMP:  50;

CLINES CORNERS NOT AVBL
BELEN          FAIR      44   3  18 NW3       30.20F
6HR MIN TEMP:  16; 6HR MAX TEMP:  44;

SOCORRO        NOT AVBL

$$
NMZ524>526-539-540-131900-
SOUTHCENTRAL MOUNTAINS

CITY           SKY/WX    TMP DP  RH WIND       PRES   REMARKS
RUIDOSO        FAIR      55   0  10 N9        30.17F

$$
NMZ527>531-131900-
NORTHEAST HIGHLANDS/NORTHEAST PLAINS

CITY           SKY/WX    TMP DP  RH WIND       PRES   REMARKS
LAS VEGAS      FAIR      58   4  11 NE9       30.15F
6HR MIN TEMP:  30; 6HR MAX TEMP:  58;

RATON          FAIR      53   3  13 NE17      30.14F
6HR MIN TEMP:  20; 6HR MAX TEMP:  53;

CLAYTON        FAIR      55   8  15 N29G36    30.11F
6HR MIN TEMP:  42; 6HR MAX TEMP:  55;


$$
NMZ532>537-131900-
EASTCENTRAL PLAINS

CITY           SKY/WX    TMP DP  RH WIND       PRES   REMARKS
SANTA ROSA     FAIR      59  11  15 NE16G23   30.11R
TUCUMCARI      FAIR      61  11  14 NE16G22   30.08F
6HR MIN TEMP:  27; 6HR MAX TEMP:  61;

CANNON AFB     FAIR      59  11  15 NE24G31   30.07F
6HR MIN TEMP:  34; 6HR MAX TEMP:  59;

CLOVIS AIRPORT FAIR      59  12  15 NE25      30.06F

$$
NMZ028-029-538-131900-
SOUTHEAST PLAINS

CITY           SKY/WX    TMP DP  RH WIND       PRES   REMARKS
ROSWELL        FAIR      48  15  26 E3        30.08F
6HR MIN TEMP:  20; 6HR MAX TEMP:  48;

ARTESIA        FAIR      50  12  22 E3        30.07F
CARLSBAD       FAIR      51  21  30 SE6       30.07F
6HR MIN TEMP:  19; 6HR MAX TEMP:  51;

HOBBS          SUNNY     63   9  12 W12       30.07F


$$




USA.gov is the U.S. government's official web portal to all federal, state and local government web resources and services.